GFSGL_250_spd_273.txt.gz
Wind_Speed
50 45 44 45 46 48 52 54 56 64 70 77 87 101 109 114 122 127 125 117 108 101 97 84 85 79 73 78 81 81 82 81 78 79 81 87 92 93 91 97 95 93 97
49 42 35 35 38 40 45 47 48 55 61 66 77 90 103 108 110 116 123 118 105 113 102 93 94 93 77 80 80 80 80 77 79 82 82 84 88 92 92 94 96 97 98
52 41 32 28 28 34 39 41 43 45 51 61 68 75 90 102 108 109 112 119 114 116 115 108 98 99 89 91 83 84 81 81 81 85 85 84 88 89 94 94 98 99 99
52 46 36 26 23 26 30 33 36 39 45 51 58 67 79 92 100 105 107 109 113 115 115 117 105 95 97 96 95 81 80 82 84 85 89 85 90 90 95 99 99 101 103
53 52 43 33 22 19 22 23 27 32 38 46 54 63 73 81 87 97 102 105 113 110 109 110 107 101 102 96 95 85 81 84 83 83 87 86 85 87 89 94 101 106 105
49 51 48 38 28 19 14 17 21 26 32 39 47 53 62 69 75 86 94 100 106 115 108 106 94 94 105 93 89 86 85 86 85 84 87 88 91 89 94 97 101 107 109
45 44 47 42 33 21 11 11 17 23 27 35 46 52 58 64 63 74 89 96 110 108 109 106 98 88 97 88 86 86 87 86 88 88 90 91 94 95 98 101 106 103 104
42 38 40 44 40 26 13 4 10 18 25 31 36 44 49 53 60 71 82 92 103 104 104 103 104 97 92 80 85 84 87 88 87 87 91 92 93 96 94 98 104 107 108
33 35 32 34 36 33 21 10 5 5 12 18 28 40 46 58 64 70 77 88 105 104 104 100 104 86 94 91 85 83 84 88 90 93 91 91 95 97 99 100 105 112 119
30 32 30 28 30 32 29 23 11 2 7 9 19 29 37 49 56 64 79 90 96 98 105 94 97 95 95 91 91 88 88 85 83 94 99 101 101 101 104 109 111 118 121
25 25 26 25 21 21 24 24 21 14 6 3 13 23 31 43 57 65 71 81 83 104 104 108 104 113 115 107 91 87 91 98 100 96 96 101 108 111 111 113 118 123 125
20 21 22 20 20 17 12 14 14 12 8 2 8 19 32 48 70 83 91 94 102 105 102 103 106 107 110 116 105 94 91 93 98 111 117 115 116 120 130 133 138 140 143
18 19 17 16 16 17 13 9 7 8 6 4 4 14 29 42 61 77 90 91 92 97 103 105 105 106 104 114 116 124 119 120 122 124 121 121 121 127 134 138 140 141 140
13 13 15 15 13 13 13 11 7 5 5 8 12 19 30 43 55 69 80 86 91 96 99 102 103 99 101 104 110 115 119 122 124 125 126 130 128 128 129 131 134 138 140
12 14 15 15 15 13 11 9 7 5 9 15 19 23 30 41 54 64 71 78 83 87 90 93 93 97 100 103 101 101 109 112 114 116 119 123 125 127 132 135 135 135 140
10 9 10 11 14 16 17 17 15 12 10 10 15 24 32 38 45 52 60 68 75 79 83 86 89 92 98 101 105 108 110 111 114 117 123 128 127 123 124 125 124 124 126
11 11 11 12 12 13 13 12 12 19 21 19 19 20 23 27 36 46 56 64 72 79 86 91 93 96 99 103 105 108 110 110 108 108 112 111 109 108 112 116 117 119 121
13 11 11 13 16 18 21 23 23 23 23 22 23 27 31 35 39 41 43 46 50 56 60 65 69 72 75 78 81 85 88 91 93 96 99 101 103 105 107 110 110 111 111
23 20 14 12 12 14 16 17 19 22 25 29 32 34 36 38 40 42 44 47 51 54 59 62 66 69 73 76 79 82 85 87 90 92 94 96 97 98 103 104 106 110 115
23 23 22 20 17 14 14 16 17 19 22 26 28 30 33 35 38 42 45 48 51 55 58 61 64 67 69 71 74 77 79 82 84 86 90 94 99 102 106 110 110 112 117
29 26 22 21 23 23 22 21 24 28 26 25 29 31 33 34 37 39 42 45 48 51 53 58 60 65 66 67 70 75 81 85 91 95 94 99 103 106 106 108 108 109 108
27 29 31 32 33 35 35 33 31 31 31 32 37 42 45 47 45 46 49 52 56 59 61 62 65 68 68 71 71 77 87 92 95 100 102 103 103 105 107 103 99 100 101
36 34 34 36 39 41 45 46 48 47 47 48 49 50 51 52 54 59 62 59 62 61 60 63 68 69 71 75 80 81 84 88 90 90 92 92 92 93 94 96 98 101 104
46 44 45 45 47 46 45 46 53 57 58 60 62 62 61 61 61 62 63 65 67 68 71 73 74 77 80 84 86 88 90 89 88 90 91 92 94 95 97 100 103 105 107
57 58 58 58 58 54 55 55 53 55 60 65 67 68 68 68 68 69 70 71 71 75 78 79 82 86 88 90 92 92 92 94 94 94 95 96 99 101 102 104 106 108 108
70 68 65 65 66 63 58 60 60 60 60 62 66 69 71 71 71 73 75 78 79 80 83 85 87 88 90 90 92 94 96 98 98 98 99 101 103 104 106 107 106 105 103

GFSGL_250_spd_276.txt.gz
Wind_Speed
54 54 56 52 53 51 52 50 50 51 53 58 60 60 64 75 93 106 114 119 125 123 120 113 102 99 93 91 93 85 85 84 82 81 80 81 83 87 86 88 91 92 96
53 54 55 51 48 45 45 42 41 42 44 48 51 54 57 67 83 96 105 113 117 121 120 110 112 102 92 96 93 95 88 88 87 83 80 83 85 90 90 92 92 93 97
52 52 56 48 47 40 36 33 31 33 35 40 44 48 52 61 79 90 97 105 112 117 117 115 108 105 95 100 100 97 93 88 88 78 77 85 88 89 89 91 93 93 91
50 51 54 50 47 38 28 25 25 27 30 34 39 43 49 59 72 81 89 98 106 112 115 116 109 109 104 104 97 95 91 92 95 85 79 80 86 85 87 91 89 89 90
47 50 52 51 46 39 26 19 19 21 25 28 33 38 44 55 66 76 83 91 98 108 112 112 112 114 113 108 89 84 94 93 85 83 84 87 86 87 83 86 87 89 93
43 48 50 49 44 39 31 24 16 14 17 23 27 31 38 49 59 69 78 84 91 100 109 110 111 116 110 103 104 111 103 99 90 76 79 86 90 90 88 90 90 89 92
39 43 45 48 42 41 36 27 20 13 11 15 20 25 31 39 50 60 69 76 82 90 102 108 113 113 105 107 107 104 99 102 88 82 86 85 92 92 82 85 90 93 96
34 36 40 42 41 42 40 34 26 18 14 10 12 18 25 32 40 52 60 69 73 79 93 106 109 109 109 109 108 107 104 109 102 101 96 92 94 92 86 90 91 92 98
30 30 35 37 36 39 40 40 36 26 14 8 3 9 17 24 33 40 48 56 63 69 78 93 104 106 108 112 110 114 104 108 114 109 100 93 91 95 91 90 92 94 97
26 25 29 34 34 33 35 37 38 37 24 11 2 3 9 18 25 33 41 48 54 52 62 76 87 106 107 107 111 108 102 106 105 104 104 97 95 94 93 92 93 90 89
24 20 22 25 30 32 30 32 35 34 32 21 9 4 7 9 13 19 29 35 37 40 47 57 76 87 102 105 110 108 104 101 98 100 106 100 99 101 100 100 102 106 112
21 19 16 17 22 24 28 26 25 28 29 28 20 12 6 9 12 17 24 36 41 51 58 67 78 91 97 102 104 101 100 98 96 91 90 92 95 102 105 101 105 105 107
20 18 16 13 15 19 22 25 24 21 21 22 20 12 5 11 15 20 29 32 49 57 61 65 74 86 90 95 103 102 99 96 91 89 87 87 89 97 106 106 106 111 121
19 15 16 17 15 14 16 19 21 22 19 15 15 14 7 9 18 27 39 48 48 56 61 71 77 78 83 94 100 100 99 104 103 92 95 96 107 103 107 114 119 125 128
17 16 14 13 14 15 15 16 17 17 16 15 10 6 4 7 20 35 43 49 58 57 58 59 65 76 82 84 90 94 101 106 112 117 117 117 120 124 125 129 132 132 132
16 14 13 12 11 10 11 12 15 15 14 12 9 7 6 11 18 40 46 48 56 59 58 66 69 75 78 82 86 95 103 106 109 113 117 121 124 122 123 125 126 131 134
18 16 15 15 15 16 17 16 17 16 14 14 17 16 14 13 17 27 40 54 57 64 69 71 76 78 85 89 89 96 102 105 108 111 115 118 120 122 126 126 125 127 133
19 16 17 17 15 14 13 13 14 16 17 19 21 22 22 25 26 27 30 38 47 56 69 76 82 86 90 91 93 95 98 101 105 108 111 112 115 120 122 121 119 119 120
25 23 21 20 19 20 21 20 19 17 17 18 20 21 22 26 30 33 36 39 44 48 52 57 63 70 76 81 85 88 92 95 98 100 101 101 102 105 107 107 107 107 109
33 31 30 29 26 25 25 24 24 25 26 28 29 27 28 29 30 32 34 37 42 47 52 57 62 65 68 71 74 78 82 85 88 89 89 89 90 89 90 94 98 102 106
27 29 32 32 29 28 25 27 29 29 31 34 37 39 40 40 41 41 42 44 45 47 49 52 55 58 59 62 64 65 67 71 73 77 81 83 84 87 93 98 102 101 100
42 35 34 36 36 34 34 36 36 33 36 38 39 41 45 49 51 56 59 59 58 58 58 61 62 62 65 67 69 71 75 78 78 80 83 83 87 91 92 92 92 95 97
45 44 45 46 48 50 49 49 49 48 42 39 39 42 46 50 58 64 65 66 67 68 69 69 68 69 70 71 72 75 79 80 81 79 83 89 91 93 95 95 97 98 100
51 50 49 50 54 57 57 58 55 58 58 52 49 49 53 55 59 62 64 68 69 70 71 73 76 79 79 80 81 83 83 85 86 89 90 91 94 95 95 97 99 101 103
60 59 59 59 55 59 63 66 65 65 62 61 62 62 61 59 61 65 65 67 70 71 70 70 72 76 80 82 84 85 87 88 89 91 92 94 95 96 97 99 102 103 106
69 71 70 70 64 64 69 72 72 72 72 72 73 72 68 68 66 64 65 66 67 68 71 73 74 76 78 81 83 85 87 89 91 92 94 95 96 97 100 102 104 105 105

GFSGL_250_spd_279.txt.gz
Wind_Speed
55 55 55 55 54 55 57 56 59 59 58 57 58 58 59 62 64 66 74 81 87 102 111 121 123 122 115 101 102 99 103 103 92 88 88 89 87 87 88 88 90 89 91
55 55 55 55 53 53 54 49 49 48 47 45 45 47 48 53 58 63 69 74 78 86 101 109 120 120 116 102 109 108 108 105 100 95 87 93 92 87 91 94 90 88 91
53 53 53 53 51 48 52 47 45 42 41 37 36 37 40 45 49 54 61 68 75 81 91 98 112 118 115 108 111 109 101 100 103 100 95 96 92 93 94 97 93 95 96
52 51 50 49 47 44 47 47 42 35 34 30 27 28 31 37 42 46 55 64 72 77 84 91 106 115 118 113 113 120 110 111 107 98 100 100 98 99 99 98 98 100 97
52 48 46 46 44 42 42 42 39 29 24 24 22 22 25 29 35 42 50 59 67 74 82 88 100 112 116 118 116 113 114 116 109 95 103 106 99 98 97 98 98 99 99
51 43 41 42 43 39 38 41 36 29 20 16 17 19 24 27 32 38 47 56 63 69 75 82 91 105 113 117 120 117 109 112 97 98 104 97 91 98 100 95 95 95 92
46 41 35 37 39 38 36 37 38 30 22 17 12 13 19 24 30 37 44 52 58 64 71 78 84 94 108 114 118 116 116 111 102 105 102 101 94 91 92 94 95 93 93
42 36 30 31 34 36 34 34 38 33 24 18 14 9 9 17 24 29 37 45 52 60 69 72 78 86 97 111 114 114 115 110 107 103 99 101 100 101 100 97 100 97 96
39 33 27 26 31 34 35 35 37 36 30 22 16 11 5 6 14 21 29 37 45 53 61 65 71 76 83 97 105 110 109 110 110 105 102 102 104 104 114 97 90 97 102
36 29 25 23 27 31 33 34 34 37 37 26 21 20 11 6 4 13 22 29 36 42 45 54 59 59 65 76 91 104 107 109 104 104 106 110 103 97 97 87 90 93 97
34 27 24 22 21 26 30 33 33 33 35 32 25 20 19 17 15 13 10 16 24 26 34 42 48 49 49 60 76 95 107 104 102 102 111 107 99 89 98 90 90 97 104
34 27 22 21 21 21 25 28 32 33 32 35 31 24 16 15 25 25 22 15 15 20 22 28 31 38 41 45 57 74 91 98 103 106 109 112 114 111 105 109 106 97 101
34 28 23 21 20 19 19 22 26 28 29 27 29 29 23 16 9 27 30 30 23 24 23 30 35 32 36 38 44 56 77 86 96 105 109 112 115 116 114 110 115 116 115
33 29 25 21 18 17 17 18 20 22 26 27 26 24 23 23 18 6 17 22 33 37 31 35 39 47 50 48 47 51 57 69 83 94 100 105 109 110 113 113 115 112 113
31 26 22 20 19 17 15 14 14 16 16 17 18 19 17 17 18 6 11 14 21 34 45 46 45 43 49 55 61 61 61 63 70 73 83 96 102 93 107 113 116 113 114
27 25 22 20 17 16 17 17 16 14 13 9 8 9 10 9 11 12 8 21 29 30 43 47 50 41 39 43 47 58 66 68 71 78 84 89 93 93 98 110 116 120 121
31 26 24 22 19 17 14 11 11 11 11 13 14 13 12 10 10 12 14 18 23 31 31 44 55 61 57 53 52 58 59 59 68 74 78 79 83 96 105 110 113 118 122
37 37 29 26 28 28 26 23 18 17 15 14 12 12 12 13 18 21 21 23 25 29 35 43 46 53 58 63 65 68 69 70 75 76 82 90 97 99 100 104 110 114 115
36 34 33 32 26 25 27 27 26 27 26 27 26 24 24 23 21 21 22 25 30 35 39 43 47 52 55 59 62 65 73 77 83 88 91 91 94 96 99 102 106 112 117
39 38 36 36 34 31 28 26 26 27 29 29 28 31 31 33 32 32 34 35 36 38 40 43 47 51 56 61 65 69 72 75 79 84 90 91 94 98 100 102 106 108 109
47 47 43 39 40 42 38 37 34 28 30 31 31 34 35 34 34 39 41 42 45 46 50 56 58 58 59 62 65 68 71 74 77 80 81 85 89 92 93 94 95 97 98
49 49 51 49 47 44 45 47 47 43 43 45 38 38 41 41 36 42 46 48 49 51 57 61 65 67 67 68 67 69 71 73 74 75 78 81 82 83 85 87 89 91 95
52 55 55 57 60 59 55 53 52 52 51 51 53 50 50 47 45 43 46 49 54 58 60 63 65 66 69 74 75 74 74 74 76 79 81 83 84 86 88 91 92 94 96
57 59 57 60 66 67 68 66 64 61 59 60 62 63 59 56 54 52 56 58 59 60 60 62 64 66 68 70 73 75 75 76 77 78 80 82 83 85 87 89 90 92 93
61 63 65 60 68 68 69 71 69 68 69 67 64 67 65 62 62 63 64 64 66 66 66 70 68 69 70 70 69 70 73 75 77 79 81 82 83 84 86 88 89 90 92
70 68 69 72 68 67 70 77 81 77 76 72 72 71 66 68 72 73 72 72 72 73 72 71 70 71 70 68 70 71 74 75 76 77 78 79 79 81 83 85 88 92 96

GFSGL_250_spd_282.txt.gz
Wind_Speed
50 50 50 51 53 54 55 55 56 59 59 60 61 66 68 70 73 71 71 74 78 83 90 98 106 116 117 121 129 130 131 127 122 117 102 93 90 89 87 90 95 96 94
49 49 50 52 55 54 53 54 53 57 58 57 56 58 57 57 58 60 64 67 71 77 81 88 95 104 108 112 116 126 125 125 116 110 109 106 97 99 97 99 98 97 97
50 48 51 53 53 50 49 49 49 54 54 54 51 50 50 48 48 49 53 57 63 70 74 80 89 95 96 97 104 115 121 123 118 112 104 106 100 98 103 101 104 101 97
48 47 51 53 49 47 46 45 48 52 52 47 44 43 43 41 42 42 43 46 53 60 66 75 83 87 90 87 87 101 116 120 119 116 109 106 110 106 106 106 104 101 101
46 47 51 49 44 42 44 44 46 49 47 41 36 35 35 33 33 35 35 38 43 50 58 70 75 82 86 85 85 90 104 117 123 124 113 113 100 104 106 103 103 101 101
46 48 48 43 39 38 41 42 42 44 44 37 28 25 26 26 24 27 27 30 34 40 51 63 70 73 77 80 82 84 93 106 120 120 118 118 107 106 108 109 102 103 105
47 46 43 36 35 33 37 40 40 41 40 32 25 19 17 17 18 21 23 25 28 34 42 52 60 64 65 69 73 77 85 96 110 120 122 117 109 106 102 105 105 102 105
44 41 38 32 31 29 32 37 38 39 39 33 27 16 11 10 11 15 19 22 24 28 37 45 50 55 60 67 71 74 80 89 100 111 118 114 107 106 106 110 105 105 105
39 37 35 31 29 28 29 33 35 35 39 39 33 23 15 8 4 6 12 17 24 29 35 41 49 55 61 65 66 67 73 80 89 102 111 110 107 107 112 112 113 109 102
35 34 33 32 28 28 29 30 33 31 32 33 33 31 25 13 6 3 3 9 15 25 33 40 46 52 56 58 60 62 67 72 81 93 104 106 107 107 109 109 117 108 113
34 33 32 31 29 29 28 29 29 32 28 29 26 26 24 21 16 9 5 4 7 13 22 29 37 42 45 48 48 50 58 65 68 80 94 106 110 106 112 109 110 113 112
33 33 32 30 29 29 28 28 29 28 28 25 27 30 22 20 19 15 12 8 7 6 8 12 17 22 29 33 38 44 48 53 56 66 83 101 109 111 117 108 108 109 113
34 33 31 29 26 25 26 26 25 24 24 24 25 28 29 25 20 16 19 18 11 10 13 15 13 16 21 24 26 29 31 29 42 59 71 87 99 108 118 121 119 112 115
35 36 33 29 28 26 25 23 24 26 26 26 24 21 24 19 19 13 14 14 19 17 15 13 13 17 19 27 30 32 36 42 48 53 65 79 91 103 112 113 113 113 111
35 32 28 28 27 25 25 25 23 21 20 19 19 19 20 16 10 5 1 2 4 10 17 22 24 25 21 21 25 30 35 38 41 47 52 56 67 84 95 103 106 109 111
39 34 35 35 30 29 25 21 19 19 18 16 15 13 12 12 12 6 6 13 12 16 21 22 24 31 33 35 39 39 41 44 48 45 54 56 61 68 74 81 87 90 96
37 38 35 31 33 34 31 32 33 27 22 19 19 17 15 13 11 12 15 16 16 17 18 24 36 39 40 44 45 48 47 49 52 53 56 59 63 68 72 77 83 88 94
37 38 37 38 33 35 34 31 31 32 32 33 32 25 20 20 20 19 19 22 24 27 29 30 28 37 43 49 54 56 56 63 66 65 67 69 72 73 75 78 82 85 90
42 41 40 41 41 40 37 36 36 36 33 30 31 31 32 33 33 32 29 28 28 29 31 34 36 39 43 47 49 55 60 66 71 74 74 77 80 83 86 88 90 94 97
43 44 44 43 42 43 43 44 42 42 44 40 39 38 36 33 31 29 31 37 39 37 38 40 41 42 44 49 53 57 61 64 67 69 72 75 79 82 85 88 90 91 92
47 49 48 49 46 48 49 49 51 50 49 51 49 48 45 42 40 39 39 39 37 45 49 50 52 48 50 53 57 60 62 64 67 71 75 78 81 84 87 89 91 91 91
48 51 53 52 52 52 53 54 56 58 56 56 57 59 57 55 53 48 44 47 47 50 52 50 51 51 53 59 64 66 68 71 73 75 77 78 79 80 82 83 85 87 89
54 55 57 58 59 57 56 59 60 63 64 65 64 61 62 67 66 63 58 53 57 56 58 58 55 56 59 62 67 70 73 77 77 78 80 82 83 83 79 78 80 82 85
61 62 63 63 63 66 66 64 67 68 69 69 71 72 70 68 71 70 69 69 65 60 61 62 60 59 62 67 70 73 75 78 80 80 79 82 83 82 81 80 80 83 86
67 68 68 68 69 71 72 74 75 77 80 79 77 79 77 73 72 73 73 72 67 67 68 69 68 66 67 70 72 73 72 70 70 72 73 75 76 75 76 78 81 84 86
72 74 75 76 77 79 80 80 80 83 83 84 86 84 83 82 79 77 77 77 76 72 70 70 69 71 71 72 72 71 69 68 68 68 69 70 72 75 78 79 80 80 82

GFSGL_250_spd_285.txt.gz
Wind_Speed
61 57 56 56 55 55 58 60 60 61 60 60 62 64 65 66 69 71 72 76 79 80 82 85 92 100 106 113 117 117 113 117 120 125 127 127 124 109 103 103 95 96 97
57 56 54 54 54 55 56 56 57 55 53 56 58 60 60 61 64 64 64 65 68 71 73 74 78 86 89 99 108 112 114 108 112 115 122 124 122 107 104 104 102 100 98
56 54 51 53 53 53 53 54 50 48 49 53 54 53 53 55 56 55 53 53 54 57 59 63 69 74 79 85 92 102 110 108 104 113 118 125 122 107 106 107 104 96 97
57 52 51 52 51 53 52 47 46 46 47 49 50 50 50 50 49 46 44 42 44 46 46 51 57 63 70 78 85 93 102 100 98 100 116 122 124 117 112 106 92 98 94
56 50 50 49 51 50 45 42 42 44 46 47 47 47 44 43 42 41 38 37 37 38 39 40 45 52 59 68 78 86 86 89 90 89 98 112 119 123 117 109 109 103 104
54 51 48 47 46 40 39 39 39 45 47 46 44 40 37 37 35 34 32 29 31 32 32 32 35 41 49 57 65 72 77 82 85 84 86 95 106 118 122 124 124 116 109
53 49 46 45 39 34 33 34 35 43 45 47 44 38 35 32 31 29 24 22 24 25 25 23 25 31 38 44 54 63 68 72 76 76 79 80 90 102 113 123 122 117 112
50 46 42 41 37 33 31 31 31 37 43 47 45 41 36 32 28 24 20 16 15 15 16 16 17 22 28 35 43 51 56 62 67 69 71 75 80 91 103 115 117 122 120
47 42 35 35 34 32 31 29 31 33 39 42 40 40 36 31 27 21 15 11 9 9 8 8 10 15 22 30 37 43 48 55 63 67 70 75 77 83 92 102 110 117 119
48 41 34 31 34 34 32 33 33 35 35 39 37 36 35 33 28 28 21 12 7 5 5 4 8 12 20 26 32 36 41 46 51 57 61 64 69 74 78 88 101 113 114
44 36 32 30 34 35 33 33 34 32 32 32 34 34 33 33 31 27 27 24 18 12 5 4 7 10 15 22 28 33 38 42 46 51 54 57 61 67 73 77 85 95 106
43 39 36 31 30 33 34 33 33 33 33 30 31 33 31 33 30 27 25 24 21 16 13 9 5 6 13 20 27 32 37 40 45 49 53 55 59 64 69 74 79 88 101
38 40 37 36 38 36 34 34 34 34 32 33 29 28 30 28 28 27 26 20 18 16 14 12 7 4 1 4 12 18 24 26 28 30 33 39 44 49 53 59 69 81 93
35 35 36 37 37 35 34 33 32 34 34 33 31 29 26 26 22 21 22 23 12 11 9 12 10 4 4 9 15 15 16 18 20 22 24 31 32 35 42 50 59 70 81
34 33 35 33 34 36 37 37 36 36 34 32 31 32 28 25 20 19 17 20 15 16 18 9 4 8 13 16 15 11 14 18 20 22 22 26 32 40 45 48 52 55 63
33 32 33 36 34 32 32 32 34 35 34 33 34 34 31 27 26 26 20 22 19 18 16 16 14 14 18 19 19 20 22 26 31 31 30 32 38 46 54 57 59 65 68
35 34 34 33 36 36 35 35 35 35 35 35 33 31 31 32 33 33 27 24 25 26 27 25 21 27 28 31 32 33 31 31 33 37 44 46 49 51 50 51 56 58 68
39 38 38 37 37 37 37 38 38 39 39 40 41 40 37 35 36 32 32 32 33 27 25 28 33 35 35 36 37 45 46 47 49 52 54 55 57 61 63 64 65 68 73
41 41 40 41 41 42 40 40 39 42 43 45 46 46 46 48 46 44 40 34 32 32 33 34 33 36 37 41 45 47 51 55 59 63 65 68 70 70 73 75 78 78 81
44 44 43 44 46 45 46 46 46 47 47 48 49 50 50 51 54 52 49 51 51 46 35 38 41 39 37 40 41 48 53 56 59 62 65 69 71 75 79 81 83 87 89
48 47 46 48 50 51 50 49 50 52 53 53 52 53 54 55 57 59 60 57 58 58 58 55 47 43 44 46 47 50 49 56 64 66 67 68 69 71 73 75 77 81 81
52 53 52 52 54 55 55 57 56 57 58 60 60 60 61 61 62 64 63 63 64 62 63 61 59 54 53 53 53 54 57 57 58 68 72 74 75 75 78 81 83 85 83
57 59 59 59 60 60 62 63 64 65 65 66 66 67 68 70 70 70 74 74 71 70 67 67 63 61 61 61 63 63 62 63 64 65 69 72 74 76 79 81 81 79 79
65 66 66 67 68 68 68 70 70 70 71 72 74 75 75 78 79 80 83 82 81 77 73 69 67 65 64 64 65 66 65 66 68 69 72 73 74 74 74 75 75 75 76
70 71 72 72 73 73 75 76 76 77 78 79 80 81 84 86 87 87 87 85 83 80 78 74 69 67 66 68 68 68 68 68 70 73 74 72 71 69 69 69 69 69 70
76 76 77 77 77 78 80 82 82 83 85 87 88 91 92 92 93 89 84 79 78 78 77 75 73 71 71 70 69 70 71 73 74 72 67 65 64 65 65 67 68 71 74

GFSGL_250_spd_288.txt.gz
Wind_Speed
71 73 71 72 66 62 60 59 59 56 57 59 62 62 61 62 65 67 69 71 73 72 73 75 81 86 87 89 93 97 100 103 105 113 121 126 129 128 137 129 108 99 97
70 70 66 64 57 55 56 55 53 54 56 58 56 55 55 58 62 63 64 66 67 67 66 69 73 75 78 82 85 89 94 99 101 106 111 119 125 128 128 131 131 108 100
70 63 61 57 55 53 51 49 51 54 55 53 49 48 51 56 58 58 58 57 57 58 56 55 59 63 67 71 76 79 84 91 95 96 104 112 117 124 126 124 128 128 119
66 58 59 57 53 49 49 50 53 54 52 48 45 43 45 49 50 50 47 46 45 43 42 43 45 47 52 56 62 68 74 78 83 90 98 103 108 111 117 123 126 121 120
61 55 59 56 50 48 49 50 49 47 48 44 42 38 42 42 44 43 41 39 38 37 35 34 35 37 40 46 51 57 61 68 76 80 87 95 99 103 107 112 114 122 118
59 54 55 52 50 48 44 42 40 39 40 38 38 39 43 41 42 39 39 36 33 32 33 31 30 31 32 36 41 46 52 57 66 76 76 82 91 97 100 100 103 108 117
52 51 53 52 47 46 40 37 35 34 36 34 36 41 42 42 40 36 36 32 28 26 26 29 28 25 25 27 31 36 40 46 54 63 70 76 83 90 94 93 96 96 101
46 49 51 51 45 43 37 32 32 32 34 36 39 41 44 43 40 34 32 27 26 23 20 19 20 21 17 15 19 24 30 35 44 53 63 70 74 78 82 82 81 82 85
42 46 48 50 44 42 38 33 32 32 33 35 35 38 41 41 39 40 36 29 27 24 22 18 16 15 13 11 10 13 19 25 33 45 54 61 66 70 75 80 79 78 80
44 43 46 46 47 42 40 35 34 32 31 33 36 35 36 37 39 43 41 35 32 31 26 19 16 15 13 4 1 5 11 17 25 36 47 56 61 64 68 71 74 75 77
47 40 43 47 45 43 41 38 36 36 36 33 31 36 37 39 39 40 42 44 42 36 31 26 23 17 13 8 5 3 6 11 20 31 40 49 55 61 67 71 72 73 75
47 41 39 45 41 39 40 38 35 37 37 37 37 37 36 37 38 38 39 39 37 40 40 34 29 27 23 14 8 3 3 7 10 15 25 33 40 45 47 50 56 60 63
46 42 41 38 39 36 36 38 38 38 39 37 37 39 39 36 34 34 37 37 38 37 37 35 32 23 20 17 12 8 3 7 14 19 25 29 34 38 42 47 51 55 59
46 43 40 41 37 36 32 32 33 35 35 37 37 39 40 38 37 37 37 35 34 33 32 29 30 28 21 16 11 8 4 4 8 15 22 25 29 34 40 44 47 50 56
47 46 40 39 40 38 35 34 32 32 33 34 35 37 34 35 37 39 40 36 35 35 31 28 27 25 23 21 17 14 13 15 15 16 18 21 23 26 30 37 42 47 50
47 49 43 42 39 39 37 36 34 34 36 36 36 37 37 39 38 37 38 40 41 39 34 32 31 27 26 26 25 25 24 23 24 23 24 27 27 27 27 29 33 36 39
49 51 47 44 42 40 39 39 37 37 37 39 39 40 40 40 40 41 42 42 41 39 37 36 37 33 29 31 32 31 35 35 35 36 36 38 37 39 40 43 45 49 50
51 51 49 47 44 43 41 41 41 40 39 40 42 42 43 42 41 43 44 45 46 46 43 41 41 36 36 37 39 37 36 40 43 42 46 47 47 48 50 53 55 56 59
53 50 50 49 49 47 46 46 45 46 45 46 46 46 48 48 49 49 49 49 49 49 50 51 50 51 47 42 40 38 44 45 43 43 46 51 54 57 61 65 66 68 70
51 51 49 48 50 50 51 51 50 51 52 52 53 52 51 52 53 54 55 55 56 56 55 56 57 58 59 56 52 49 45 45 49 47 51 53 53 55 60 64 68 73 76
52 50 51 52 53 54 55 56 57 59 59 59 60 60 60 59 58 59 61 63 63 63 63 63 64 65 67 66 64 59 53 50 51 52 52 53 56 58 62 66 68 68 68
54 55 56 57 58 60 61 62 64 64 66 67 69 68 67 66 66 66 68 69 71 71 71 73 73 74 76 74 71 64 62 60 58 58 60 60 61 62 65 68 70 70 73
57 57 59 61 64 67 68 69 71 73 74 75 75 75 74 74 74 75 75 76 77 77 79 81 81 82 82 79 75 69 65 63 62 63 63 64 65 66 67 68 69 70 72
61 61 64 66 69 73 76 76 76 77 78 79 79 79 81 82 83 82 83 83 86 87 87 87 86 85 84 78 73 72 69 67 67 66 66 66 68 69 69 67 68 70 72
66 69 71 73 77 78 78 79 81 82 83 84 83 88 89 91 92 91 92 93 96 93 91 90 88 85 78 73 72 70 67 65 66 67 67 67 69 68 68 69 69 68 68
73 76 78 82 83 82 82 84 86 88 89 91 93 95 96 99 98 99 99 100 99 95 91 87 84 80 78 75 72 69 67 67 67 67 67 67 68 67 66 64 64 66 68

GFSGL_250_spd_291.txt.gz
Wind_Speed
57 62 66 71 75 77 77 73 70 66 61 59 57 57 56 59 58 61 63 64 66 65 65 65 67 69 71 73 76 80 82 85 82 91 92 95 99 103 115 119 124 118 130
59 63 68 70 73 74 70 67 61 57 55 54 53 54 57 56 56 58 60 60 61 60 61 59 59 60 61 62 65 69 72 77 78 86 92 94 97 101 106 116 123 126 127
59 65 66 68 70 66 64 61 57 52 51 52 53 53 53 52 53 55 55 56 54 53 51 50 49 50 53 54 56 59 62 65 67 73 86 94 94 97 101 107 116 124 125
61 62 64 66 62 58 56 52 50 50 52 48 48 48 49 45 45 48 46 44 45 45 43 41 38 39 40 43 46 49 53 56 57 62 75 84 90 93 95 99 109 118 124
58 60 61 60 53 51 51 50 49 50 49 45 42 43 42 42 41 41 41 43 41 40 40 39 35 31 31 33 36 41 44 46 49 53 63 72 78 87 95 98 102 110 118
55 55 56 57 48 48 48 50 46 44 44 39 38 39 36 37 39 39 40 40 40 38 35 34 35 33 28 28 30 30 35 40 43 47 53 64 77 81 90 95 99 101 108
53 51 52 52 47 47 47 50 48 43 41 38 36 35 33 33 35 36 38 41 39 36 34 33 32 33 31 26 25 25 26 30 36 42 48 56 68 81 82 86 91 95 95
51 48 50 49 46 46 46 47 48 43 37 37 36 35 35 33 34 35 37 39 42 41 40 36 31 29 30 28 20 17 18 21 26 33 40 47 55 64 73 81 85 86 90
47 45 48 48 45 44 45 42 43 41 37 33 31 32 34 34 33 33 33 35 41 42 43 40 32 26 23 23 24 19 12 12 16 21 29 37 44 51 62 73 78 81 85
44 43 46 47 45 41 44 43 41 41 38 35 35 37 38 38 37 38 39 37 36 39 42 43 42 37 27 25 22 16 15 10 7 11 17 23 32 41 49 60 68 73 75
43 44 45 48 43 42 39 42 41 40 39 38 36 37 36 37 40 40 40 41 41 38 37 40 41 41 42 35 27 25 20 16 10 5 2 11 21 30 38 46 54 60 64
44 47 47 48 46 43 41 41 39 41 40 37 36 36 37 37 38 39 40 40 42 42 40 40 38 39 38 39 37 30 23 19 14 9 6 4 10 20 30 38 45 50 56
46 48 51 51 46 44 43 43 40 38 39 36 37 37 35 36 37 36 35 41 42 42 43 43 43 40 37 35 33 31 31 27 21 14 8 2 8 14 25 35 41 44 51
47 49 52 50 47 44 44 43 43 42 39 37 36 36 37 38 39 39 37 38 38 39 41 42 41 41 41 36 32 31 29 26 23 21 16 12 13 18 25 30 37 44 49
50 52 53 50 49 45 45 46 45 44 42 40 40 40 40 40 39 39 40 41 41 41 39 39 40 40 40 38 37 34 32 32 29 25 21 16 16 19 26 33 39 42 47
55 56 56 52 50 50 46 47 48 46 44 43 42 42 43 44 45 44 43 43 43 43 44 44 41 40 39 39 40 39 38 38 35 32 30 27 24 23 23 25 31 39 46
57 60 59 56 50 50 49 50 50 48 47 45 46 46 47 47 47 47 46 46 46 46 45 45 47 47 46 46 43 41 41 40 42 41 36 35 37 37 36 37 37 38 38
62 62 57 51 51 49 51 51 50 49 50 49 49 49 50 51 51 52 51 50 51 52 51 51 51 50 51 51 50 49 48 47 45 45 46 47 45 42 43 47 48 49 49
63 58 54 50 51 49 52 52 53 51 51 53 53 54 54 55 56 57 56 56 58 60 58 58 56 56 56 56 55 55 56 57 57 56 53 50 49 47 51 50 50 51 54
63 56 56 53 52 51 53 55 55 55 57 56 57 58 60 62 63 64 64 64 65 65 64 64 63 62 63 64 60 61 63 64 65 65 65 62 56 53 54 54 58 60 61
59 58 58 58 56 54 56 57 56 57 59 61 63 64 66 68 70 72 73 72 72 71 69 69 69 70 72 72 73 73 71 73 72 72 69 66 64 61 59 58 60 62 64
65 62 57 56 56 57 59 60 61 62 64 65 66 68 71 74 77 77 77 77 77 75 76 77 77 79 80 81 81 82 80 82 83 77 73 69 64 62 63 65 65 66 66
60 56 55 56 60 61 63 64 66 68 69 70 73 75 77 79 80 80 80 80 83 84 82 86 86 85 88 89 88 88 87 87 82 77 72 69 67 65 65 65 66 69 70
62 60 60 60 62 64 66 68 71 74 77 80 82 84 85 85 85 85 85 85 86 86 90 93 95 94 95 95 93 90 87 84 79 75 73 70 68 68 67 66 65 66 66
66 66 66 66 67 70 73 76 77 82 83 85 87 87 88 88 89 90 90 91 93 95 98 100 100 98 94 90 87 85 82 76 75 72 69 69 67 64 63 62 62 63 63
70 72 74 75 76 77 80 83 84 86 87 88 89 90 91 92 93 95 97 99 99 96 90 87 85 83 82 80 80 80 79 76 72 68 64 61 60 60 59 59 60 62 63

GFSGL_250_spd_297.txt.gz
Wind_Speed
56 55 55 54 53 54 55 57 57 60 61 60 61 59 57 56 58 56 53 52 51 51 53 54 55 55 54 54 53 54 56 58 62 69 69 77 84 85 82 82 86 86 88
55 53 53 53 54 53 55 57 58 60 59 58 59 56 55 55 54 50 47 47 48 49 49 51 52 52 53 52 50 50 50 52 56 60 59 62 72 78 79 76 82 88 86
53 52 51 53 55 52 54 54 57 59 59 57 56 54 51 48 47 46 46 47 45 44 44 46 48 50 50 53 51 48 48 48 54 55 52 50 56 63 68 68 70 81 88
54 54 54 54 53 50 52 53 55 57 58 57 55 54 49 46 43 43 41 42 42 41 41 43 46 48 49 51 52 50 47 43 46 50 46 43 45 50 57 61 62 69 80
56 56 54 53 53 50 52 52 53 55 57 55 53 53 48 43 42 42 44 46 47 45 44 45 45 46 48 49 51 51 48 45 42 42 43 38 38 40 45 48 53 60 68
57 57 54 52 51 50 51 52 53 53 55 55 50 51 47 43 41 41 43 43 42 43 44 45 47 47 45 48 49 49 47 45 43 38 35 32 30 33 36 38 41 47 57
58 56 53 50 50 50 50 50 52 53 53 53 49 49 48 44 42 40 39 39 43 43 43 42 42 45 47 49 50 48 51 46 42 40 30 28 24 24 28 32 35 39 47
57 54 52 51 50 50 49 49 50 53 52 48 49 46 44 44 44 41 40 40 43 43 43 43 43 44 45 46 49 52 51 52 50 41 40 26 22 20 19 23 28 31 38
56 53 52 51 49 50 48 49 49 51 50 46 46 46 46 43 43 43 41 42 41 40 43 44 43 44 44 45 47 50 52 54 53 52 44 41 30 18 14 16 21 26 32
52 53 53 50 48 49 47 48 48 51 50 46 48 47 45 46 46 44 42 40 40 41 42 43 43 42 43 44 46 48 50 51 52 53 51 47 40 36 21 13 14 19 26
53 55 52 50 49 48 48 48 50 51 50 47 48 49 48 47 45 48 46 44 43 43 44 44 44 44 43 44 44 46 47 49 49 48 49 50 48 41 35 29 19 13 17
56 56 53 53 51 48 47 49 52 52 49 49 50 53 52 50 49 48 48 47 46 46 45 45 45 45 45 45 45 44 45 45 46 47 46 44 46 47 45 40 30 23 16
58 59 57 54 51 48 50 51 52 51 50 51 52 53 54 53 49 49 48 47 48 47 47 47 45 46 47 48 47 46 44 46 46 43 43 43 40 40 42 43 42 37 26
60 59 58 55 48 53 55 54 57 55 52 53 55 56 55 58 53 50 50 47 47 48 48 48 49 47 47 48 49 49 47 45 45 47 46 42 40 41 38 37 39 41 38
60 59 56 45 56 57 58 59 58 58 55 55 57 57 57 59 57 53 53 51 48 46 48 48 49 49 49 49 49 49 51 50 49 48 47 46 45 42 38 39 39 37 35
61 62 56 49 61 53 60 62 61 59 57 57 59 60 60 60 59 56 54 54 51 49 48 49 50 52 53 53 52 52 53 53 54 54 52 47 46 46 45 41 37 39 40
63 61 52 53 53 53 60 65 64 65 63 62 62 61 63 59 59 59 58 56 55 54 53 49 49 52 54 55 55 54 54 56 59 59 57 56 51 49 48 44 44 41 43
59 60 61 55 55 64 68 68 68 67 66 66 65 66 67 61 60 63 61 60 59 57 56 52 52 54 57 57 58 58 58 60 61 61 61 60 59 55 49 48 50 50 52
63 63 52 62 59 65 71 72 71 71 68 70 70 65 66 67 64 64 62 62 62 61 58 57 55 56 59 60 61 62 62 62 62 62 62 63 62 61 61 61 59 59 58
60 63 64 67 71 74 72 67 64 66 68 71 69 69 70 69 66 67 65 64 62 61 61 61 60 61 63 64 66 67 66 68 67 67 67 65 67 71 70 68 66 64 63
64 67 68 69 72 73 70 68 70 72 73 73 74 76 75 69 71 71 67 63 64 63 63 62 63 64 67 67 67 69 70 71 71 70 70 73 74 72 69 67 64 61 58
69 73 73 71 72 68 69 74 76 76 76 78 82 78 72 72 71 70 67 67 66 66 67 67 68 69 70 70 71 73 73 73 73 75 77 76 71 68 65 62 61 62 60
73 76 76 72 72 74 77 79 80 79 79 78 76 76 73 71 70 69 68 69 70 70 70 70 71 72 73 74 76 76 76 76 78 80 77 73 71 66 65 65 66 67 67
71 74 74 76 77 82 82 80 78 76 78 78 76 75 74 73 72 72 71 71 71 71 73 75 75 77 79 79 80 82 83 83 83 80 77 75 72 73 72 68 66 65 64
72 75 79 81 81 81 80 79 79 81 80 78 76 76 77 77 76 77 78 78 78 77 79 79 80 81 82 83 84 86 87 87 83 81 78 76 75 71 69 66 59 57 56
71 72 73 75 77 78 79 81 83 82 81 81 82 82 82 83 83 84 83 83 83 83 83 83 84 85 86 87 90 90 87 83 82 80 78 74 69 65 61 61 61 58 57